Regional Weather Roundup
Issued by NWS Sioux Falls, SD

Home | Current Version | Previous Version | Graphics & Text | Print | Product List | Glossary Off
Versions: 1 2 3 4 5 6 7 8 9 10 11 12 13 14 15 16 17 18 19 20 21 22 23 24 25 26 27 28 29 30 31 32 33 34 35 36 37 38 39 40 41 42 43 44 45 46 47 48 49 50

000
ASUS43 KFSD 281902
RWRFSD

WEATHER ROUNDUP FOR SE SOUTH DAKOTA/SW MINNESOTA/NW IOWA
NATIONAL WEATHER SERVICE SIOUX FALLS SD
200 PM CDT SAT MAY 28 2016

NOTE: "FAIR" INDICATES FEW OR NO CLOUDS BELOW 12,000 FEET WITH NO
SIGNIFICANT WEATHER AND OR OBSTRUCTIONS TO VISIBILITY.


SDZ038>040-050-052>070-282000-
SOUTHEAST SOUTH DAKOTA

CITY           SKY/WX    TMP DP  RH WIND       PRES   REMARKS
BROOKINGS      LGT RAIN  61  59  93 NE8       29.79F
CHAMBERLAIN    NOT AVBL
HURON          LGT RAIN  62  60  93 N7        29.81R
MADISON        MOCLDY    63  63 100 NE15      29.79S
MITCHELL       LGT RAIN  64  60  87 NW9       29.81R
SIOUX FALLS    PTSUNNY   69  60  73 NE14G20   29.76S
WINNER         FAIR      68  55  63 NW10      29.86S
YANKTON        CLOUDY    66  57  72 NW20G25   29.75R
$$

MNZ071-072-080-081-089-090-097-098-282000-
SOUTHWEST MINNESOTA

CITY           SKY/WX    TMP DP  RH WIND       PRES   REMARKS
FAIRMONT       CLOUDY    68  63  83 N7        29.76S
JACKSON        CLOUDY    64  59  82 N5        29.78S
LUVERNE        RAIN      61  57  88 NE7       29.77S
MARSHALL       NOT AVBL
MONTEVIDEO     LGT RAIN  63  61  94 NE6       29.81F
PIPESTONE      CLOUDY    64  59  82 NE8       29.78F
REDWOOD FALLS  CLOUDY    62  59  90 N5        29.78R
TRACY          CLOUDY    62  61  97 N7        29.79F
WINDOM         CLOUDY    64  61  88 CALM      29.78S
WORTHINGTON    CLOUDY    68  61  78 N6        29.77F
$$

IAZ001>003-012>014-020>022-031-032-NEZ013-014-SDZ071-282000-
NORTHWEST IOWA

CITY           SKY/WX    TMP DP  RH WIND       PRES   REMARKS
ESTHERVILLE    TSTM      65  62  90 NW9       29.76S FOG
SIOUX CITY     PTSUNNY   74  61  63 S8        29.73S
SPENCER        PTSUNNY   71  58  63 W7        29.75F
STORM LAKE       N/A     72  57  60 SW12      29.76F
$$

ABBREVIATIONS USED IN REMARKS
   TC - TEMPERATURE IN CELSIUS
  WCI - WIND CHILL INDEX
   HX - HEAT INDEX
  VSB - VISIBILITY





USA.gov is the U.S. government's official web portal to all federal, state and local government web resources and services.